Friday Harbor, WA

4:15 AM PST on January 23, 2018 (GMT -0800)
Friday Harbor

Weather History for KFHR - November, 2012

Change the Weather History Date:

Tuesday, November 27, 2012

  Actual Average Record
Temperature  
Mean Temperature 40 °F -  
Max Temperature 46 °F 45 °F 57 °F (2014)
Min Temperature 34 °F 37 °F 28 °F (2006)
Degree Days  
Heating Degree Days 25    
Moisture  
Dew Point 34 °F    
Average Humidity 80    
Maximum Humidity 93    
Minimum Humidity 59    
Precipitation  
Precipitation 0.00 in - - ()
Sea Level Pressure  
Sea Level Pressure 30.03 in    
Wind  
Wind Speed 1 mph (North)    
Max Wind Speed 7 mph    
Max Gust Speed -    
Visibility 10 miles    
Events      
Averages and records for this station are not official NWS values.
T = Trace of Precipitation, MM = Missing Value Source: NWS Daily Summary

Daily Weather History Graph

Daily Weather History Graph

Search for Another Location

Airport or City:

Trip Planner

Search our weather history database for the weather conditions in past years. The results will help you decide how hot, cold, wet, or windy it might be!

Date:

Astronomy

Nov. 27, 2012 Rise Set
Actual Time 7:38 AM PST 4:21 PM PST
Civil Twilight 7:02 AM PST 4:56 PM PST
Nautical Twilight 6:23 AM PST 5:35 PM PST
Astronomical Twilight 5:45 AM PST 6:13 PM PST
Moon 3:57 PM PST (11/27) 6:46 AM PST (11/27)
Length of Visible Light 9h 54m
Length of Day
8h 42m
Waxing Gibbous, 99% of the Moon is Illuminated
Nov 27
Waxing Gibbous
Nov 28
Full
Dec 6
Last Quarter
Dec 13
New
Dec 19
First Quarter

Hourly Weather History & Observations

Time (PST) Temp. Windchill Dew Point Humidity Pressure Visibility Wind Dir Wind Speed Gust Speed Precip Events Conditions
12:53 AM 39.9 °F - 32.0 °F 73% 30.09 in 10.0 mi Calm Calm - N/A   Clear
1:53 AM 39.0 °F - 32.0 °F 76% 30.09 in 10.0 mi Calm Calm - N/A   Clear
2:53 AM 39.0 °F 36.8 °F 30.9 °F 73% 30.09 in 10.0 mi NNW 3.5 mph - N/A   Clear
3:53 AM 34.0 °F - 30.0 °F 85% 30.09 in 10.0 mi Calm Calm - N/A   Clear
4:53 AM 35.1 °F - 32.0 °F 89% 30.09 in 10.0 mi Calm Calm - N/A   Clear
5:53 AM 35.1 °F - 32.0 °F 89% 30.08 in 10.0 mi Calm Calm - N/A   Clear
6:53 AM 35.1 °F 32.2 °F 32.0 °F 89% 30.08 in 10.0 mi North 3.5 mph - N/A   Clear
7:53 AM 35.1 °F - 33.1 °F 92% 30.09 in 10.0 mi Calm Calm - N/A   Clear
8:53 AM 37.0 °F - 35.1 °F 93% 30.09 in 10.0 mi Calm Calm - N/A   Clear
9:53 AM 42.1 °F - 35.1 °F 76% 30.09 in 10.0 mi Calm Calm - N/A   Clear
10:53 AM 43.0 °F - 35.1 °F 74% 30.08 in 10.0 mi Calm Calm - N/A   Clear
11:53 AM 45.0 °F 43.5 °F 35.1 °F 68% 30.06 in 10.0 mi NE 3.5 mph - N/A   Clear
12:53 PM 46.0 °F 43.1 °F 35.1 °F 66% 30.04 in 10.0 mi North 5.8 mph - N/A   Partly Cloudy
1:53 PM 46.9 °F - 33.1 °F 59% 30.03 in 10.0 mi Calm Calm - N/A   Partly Cloudy
2:53 PM 45.0 °F - 35.1 °F 68% 30.01 in 10.0 mi Calm Calm - N/A   Clear
3:53 PM 43.0 °F - 35.1 °F 74% 30.01 in 10.0 mi Calm Calm - N/A   Clear
4:53 PM 39.0 °F - 34.0 °F 82% 30.00 in 10.0 mi Calm Calm - N/A   Clear
5:53 PM 39.9 °F 37.8 °F 34.0 °F 79% 29.98 in 10.0 mi NNW 3.5 mph - N/A   Clear
6:53 PM 36.0 °F - 33.1 °F 89% 29.97 in 10.0 mi Calm Calm - N/A   Clear
7:53 PM 36.0 °F - 33.1 °F 89% 29.96 in 10.0 mi Calm Calm - N/A   Clear
8:53 PM 37.0 °F 34.5 °F 34.0 °F 89% 29.96 in 10.0 mi Variable 3.5 mph - N/A   Scattered Clouds
9:53 PM 37.0 °F - 34.0 °F 89% 29.95 in 10.0 mi Calm Calm - N/A   Clear
10:53 PM 41.0 °F 36.4 °F 35.1 °F 79% 29.93 in 10.0 mi North 6.9 mph - N/A   Clear
11:53 PM 42.1 °F - 35.1 °F 76% 29.92 in 10.0 mi Calm Calm - N/A   Clear